Αρχική σελίδα
METAR-TAF:

METAR-TAF

Αεροδρόμια :

Colville Lake, Βορειοδυτικά Εδάφη, Καναδάς

γεωγραφικό πλάτος: 67-01-16N, γεωγραφικό μήκος: 126-07-43W, υψόμετρο: 274 μ

Παρών καιρός

Η αναφορά έγινε 58 λεπτά πριν, στις 00:00 UTC
Άνεμος 7 kt από Α
Θερμοκρασία -5°C
Υγρασία 86%
Πίεση 1001 hPa
Ορατότητα: 14.5 χλμ
Νεφοσκεπής σε ύψος 1200 πόδια

METAR: CYVL 180000Z AUTO 08007KT 9SM OVC012 M05/M07 A2957 RMK SLP036

Χρόνος: 18:58 (00:58 UTC)


TAF: λείπει

Μετεωρολογικές αναφορές και προγνώσεις για περισσότερα από 4000 αεροδρόμια (δελτία METAR και TAF).

Οι διαθέσιμοι σταθμοί απεικονίζονται στο χάρτη με κίτρινες και κόκκινες κουκκίδες.

Μετακινήστε το ποντίκι πάνω από τις κουκκίδες για να δείτε το όνομα του σταθμού.

Στη συνέχεια, κάντε κλικ για να δείτε τις μετεωρολογικές αναφορές και τις προγνώσεις καιρού.

Για να αλλάξετε το χάρτη: κάντε κλικ στα πράσινα κουμπιά με τον μαύρο σταυρό για να ζουμάρετε, στο πράσινο κουμπί με την παύλα για να αφαιρέσετε το ζουμ ή στα πράσινα βέλη για να αντιπαραβάλλετε χάρτες.


METAR-TAF: